TimeGMT,TemperatureF,Dew PointF,Humidity,Sea Level PressureIn,VisibilityMPH,Wind Direction,Wind SpeedMPH,Gust SpeedMPH,PrecipitationIn,Events,Conditions,WindDirDegrees,DateUTC
12:20 AM,28.4,24.8,86,29.74,-9999.0,WSW,4.6,-,N/A,,Clear,240,2012-12-05 00:20:00
12:50 AM,28.4,24.8,86,29.74,-9999.0,WSW,4.6,-,N/A,,Clear,240,2012-12-05 00:50:00
1:20 AM,28.4,24.8,86,29.74,-9999.0,Variable,3.5,-,N/A,,Clear,0,2012-12-05 01:20:00
1:50 AM,28.4,24.8,86,29.74,-9999.0,Variable,3.5,-,N/A,,Clear,0,2012-12-05 01:50:00
2:20 AM,28.4,24.8,86,29.74,-9999.0,WSW,6.9,-,N/A,,Clear,250,2012-12-05 02:20:00
2:50 AM,30.2,26.6,86,29.74,6.2,WNW,6.9,-,N/A,,Unknown,300,2012-12-05 02:50:00
3:20 AM,28.4,23.0,80,29.74,6.2,SW,5.8,-,N/A,,Unknown,230,2012-12-05 03:20:00
3:50 AM,24.8,23.0,93,29.74,6.2,WSW,8.1,-,N/A,,Unknown,240,2012-12-05 03:50:00
4:20 AM,24.8,23.0,93,29.74,-9999.0,WSW,8.1,-,N/A,,Clear,240,2012-12-05 04:20:00
4:50 AM,24.8,23.0,93,29.77,-9999.0,WSW,8.1,-,N/A,,Clear,240,2012-12-05 04:50:00
5:20 AM,24.8,23.0,93,29.77,-9999.0,Variable,3.5,-,N/A,,Clear,0,2012-12-05 05:20:00
5:50 AM,28.4,24.8,86,29.77,-9999.0,West,6.9,-,N/A,,Clear,260,2012-12-05 05:50:00
6:20 AM,26.6,23.0,86,29.77,-9999.0,WSW,8.1,-,N/A,,Clear,240,2012-12-05 06:20:00
6:50 AM,26.6,23.0,86,29.80,6.2,WSW,6.9,-,N/A,,Partly Cloudy,240,2012-12-05 06:50:00
7:20 AM,28.4,24.8,86,29.80,6.2,Variable,2.3,-,N/A,,Partly Cloudy,0,2012-12-05 07:20:00
7:50 AM,26.6,23.0,86,29.80,6.2,SW,8.1,-,N/A,,Partly Cloudy,230,2012-12-05 07:50:00
8:20 AM,30.2,24.8,80,29.83,6.2,SW,5.8,-,N/A,,Partly Cloudy,220,2012-12-05 08:20:00
8:50 AM,30.2,24.8,80,29.83,6.2,WSW,4.6,-,N/A,,Partly Cloudy,240,2012-12-05 08:50:00
9:20 AM,33.8,26.6,75,29.86,6.2,NW,6.9,-,N/A,,Partly Cloudy,320,2012-12-05 09:20:00
9:50 AM,33.8,28.4,81,29.86,6.2,NW,5.8,-,N/A,,Partly Cloudy,320,2012-12-05 09:50:00
10:20 AM,33.8,26.6,75,29.86,6.2,NW,5.8,-,N/A,,Partly Cloudy,320,2012-12-05 10:20:00
10:50 AM,35.6,28.4,75,29.89,6.2,NW,5.8,-,N/A,,Partly Cloudy,310,2012-12-05 10:50:00
11:20 AM,35.6,28.4,75,29.89,6.2,NNW,6.9,-,N/A,,Partly Cloudy,330,2012-12-05 11:20:00
11:50 AM,35.6,28.4,75,29.89,6.2,NNW,6.9,-,N/A,,Partly Cloudy,330,2012-12-05 11:50:00
12:20 PM,37.4,28.4,70,29.89,6.2,NNW,9.2,-,N/A,,Partly Cloudy,330,2012-12-05 12:20:00
12:50 PM,37.4,28.4,70,29.92,6.2,NNW,8.1,-,N/A,,Partly Cloudy,330,2012-12-05 12:50:00
2:50 PM,35.6,26.6,70,29.92,6.2,NNW,6.9,-,N/A,,Partly Cloudy,330,2012-12-05 14:50:00
3:20 PM,33.8,26.6,75,29.92,6.2,NW,5.8,-,N/A,,Partly Cloudy,310,2012-12-05 15:20:00
3:50 PM,33.8,26.6,75,29.95,6.2,WNW,4.6,-,N/A,,Partly Cloudy,300,2012-12-05 15:50:00
4:20 PM,30.2,24.8,80,29.95,-9999.0,WSW,5.8,-,N/A,,Clear,250,2012-12-05 16:20:00
4:50 PM,32.0,24.8,75,29.95,-9999.0,WNW,4.6,-,N/A,,Clear,300,2012-12-05 16:50:00
5:20 PM,28.4,23.0,80,29.95,-9999.0,WSW,5.8,-,N/A,,Clear,240,2012-12-05 17:20:00
5:50 PM,30.2,24.8,80,29.98,-9999.0,West,4.6,-,N/A,,Clear,270,2012-12-05 17:50:00
6:20 PM,28.4,23.0,80,29.98,-9999.0,Variable,3.5,-,N/A,,Clear,0,2012-12-05 18:20:00
6:50 PM,26.6,21.2,80,29.98,-9999.0,WSW,6.9,-,N/A,,Clear,240,2012-12-05 18:50:00
7:20 PM,24.8,21.2,86,29.98,-9999.0,WSW,5.8,-,N/A,,Clear,250,2012-12-05 19:20:00
7:50 PM,26.6,21.2,80,29.98,-9999.0,WSW,5.8,-,N/A,,Clear,250,2012-12-05 19:50:00
8:20 PM,24.8,21.2,86,29.98,-9999.0,WSW,5.8,-,N/A,,Clear,250,2012-12-05 20:20:00
8:50 PM,24.8,21.2,86,29.98,-9999.0,WSW,3.5,-,N/A,,Clear,250,2012-12-05 20:50:00
9:20 PM,24.8,21.2,86,29.98,-9999.0,West,4.6,-,N/A,,Clear,260,2012-12-05 21:20:00
9:50 PM,24.8,21.2,86,29.98,-9999.0,West,4.6,-,N/A,,Clear,260,2012-12-05 21:50:00
10:20 PM,24.8,21.2,86,29.98,-9999.0,West,5.8,-,N/A,,Clear,260,2012-12-05 22:20:00
10:50 PM,26.6,21.2,80,29.98,-9999.0,West,4.6,-,N/A,,Clear,270,2012-12-05 22:50:00
11:20 PM,24.8,21.2,86,29.95,-9999.0,WSW,5.8,-,N/A,,Clear,250,2012-12-05 23:20:00
11:50 PM,24.8,21.2,86,29.95,-9999.0,WSW,6.9,-,N/A,,Clear,240,2012-12-05 23:50:00